DW8201 Weather Reports


Display with metric or nautical units.
time (UTC)temp
F
wind
direction
speed
MPH
gust
MPH
rain 1hr
in
rain 24hr
in
rain mn
in
humidity
%
barometer
mb
20260901113442 68 6 4.0 13.0 0.00 0.03 0.03 74 1019.0
20260901112934 69 348 3.0 10.0 0.00 0.03 0.03 74 1018.9
20260901112525 69 50 3.0 10.0 0.00 0.03 0.03 73 1019.0
20260901112015 69 323 3.0 12.0 0.00 0.03 0.03 75 1018.9
20260901111506 68 263 2.0 12.0 0.00 0.03 0.03 75 1018.9
20260901111258 68 307 2.0 9.0 0.00 0.03 0.03 74 1019.0
20260901110447 68 31 3.0 8.0 0.00 0.03 0.03 75 1018.9
20260901110335 68 38 1.0 6.0 0.00 0.03 0.03 78 1018.9
20260901105528 67 288 2.0 7.0 0.00 0.07 0.03 78 1018.9
20260901105020 67 283 2.0 9.0 0.00 0.08 0.03 80 1018.9
20260901104911 67 111 2.0 9.0 0.00 0.08 0.03 81 1018.9
20260901104005 66 193 1.0 8.0 0.00 0.08 0.03 81 1019.0
20260901103459 65 120 0.0 4.0 0.00 0.08 0.03 85 1019.0
20260901102952 65 16 0.0 4.0 0.00 0.08 0.03 85 1019.1
20260901102443 65 327 0.0 3.0 0.00 0.08 0.03 84 1019.1
20260901102237 65 134 1.0 4.0 0.00 0.08 0.03 86 1019.2
20260901101834 65 181 1.0 5.0 0.00 0.08 0.03 85 1019.2
20260901101016 65 334 1.0 5.0 0.00 0.08 0.03 85 1019.1
20260901100509 65 356 1.0 4.0 0.00 0.08 0.03 85 1019.1
20260901100000 65 316 1.0 4.0 0.00 0.08 0.03 85 1019.1
20260901095848 65 332 1.0 5.0 0.00 0.08 0.03 85 1019.1
20260901094942 65 313 1.0 5.0 0.00 0.08 0.03 87 1019.0
20260901094447 64 190 1.0 6.0 0.00 0.08 0.03 88 1019.1
20260901094035 64 343 1.0 6.0 0.00 0.08 0.03 91 1019.1
20260901093518 63 269 1.0 4.0 0.01 0.08 0.03 92 1019.0
20260901093010 63 264 1.0 4.0 0.03 0.08 0.03 92 1019.0
20260901092500 63 228 1.0 8.0 0.03 0.08 0.03 93 1019.0
20260901091953 62 201 1.0 8.0 0.03 0.08 0.03 93 1018.9
20260901091442 63 305 1.0 5.0 0.03 0.08 0.03 93 1018.9
20260901090934 62 206 1.0 5.0 0.03 0.08 0.03 93 1018.9
20260901090522 62 206 0.0 2.0 0.03 0.08 0.03 93 1018.9
20260901090012 62 247 0.0 3.0 0.03 0.08 0.03 93 1018.8
20260901085659 62 253 1.0 6.0 0.03 0.08 0.03 93 1018.9
20260901085500 62 332 1.0 4.0 0.03 0.08 0.03 93 1018.9
20260901084447 62 231 2.0 7.0 0.03 0.08 0.03 92 1018.8
20260901083938 62 239 2.0 9.0 0.03 0.08 0.03 92 1018.7
20260901083528 63 264 2.0 9.0 0.02 0.07 0.02 91 1018.7
20260901083028 63 258 2.0 7.0 0.00 0.05 0.00 91 1018.6
20260901082511 62 191 4.0 11.0 0.00 0.05 0.00 91 1018.5
20260901082002 62 199 5.0 11.0 0.00 0.05 0.00 91 1018.4
20260901081452 62 208 5.0 13.0 0.00 0.05 0.00 91 1018.3
20260901080943 62 201 6.0 13.0 0.00 0.05 0.00 91 1018.4
20260901080434 62 211 5.0 10.0 0.00 0.05 0.00 91 1018.4
20260901080023 62 158 4.0 8.0 0.00 0.05 0.00 92 1018.3
20260901075513 62 197 3.0 9.0 0.00 0.05 0.00 92 1018.3
20260901075007 62 188 3.0 9.0 0.00 0.05 0.00 92 1018.2
20260901074515 62 187 3.0 7.0 0.00 0.05 0.00 92 1018.2
20260901074050 62 228 3.0 7.0 0.00 0.05 0.00 92 1018.2
20260901073540 62 175 3.0 7.0 0.00 0.05 0.00 92 1018.1
20260901073032 62 240 3.0 7.0 0.00 0.05 0.00 92 1018.1
20260901072521 62 224 2.0 7.0 0.00 0.05 0.00 93 1018.2
20260901072112 61 179 2.0 6.0 0.00 0.05 0.00 93 1018.1
20260901071605 61 151 3.0 7.0 0.00 0.05 0.00 93 1018.0
20260901071408 61 195 3.0 7.0 0.00 0.05 0.00 93 1018.1
20260901070548 61 176 2.0 7.0 0.00 0.05 0.00 93 1018.0
20260901070042 61 204 3.0 7.0 0.00 0.05 0.00 93 1018.1
20260901065842 61 224 3.0 6.0 0.00 0.05 0.00 93 1018.1
20260901065020 61 164 2.0 6.0 0.00 0.05 0.00 94 1018.0
20260901064606 61 190 2.0 5.0 0.00 0.05 0.00 94 1017.9
20260901064058 61 189 2.0 5.0 0.00 0.05 0.00 94 1018.0
20260901063554 61 179 2.0 7.0 0.00 0.05 0.00 94 1017.9
20260901063044 61 176 2.0 7.0 0.00 0.05 0.00 94 1017.9
20260901062535 60 165 2.0 5.0 0.00 0.05 0.00 94 1017.8
20260901062336 60 173 2.0 5.0 0.00 0.05 0.00 94 1017.8
20260901061530 60 189 3.0 6.0 0.00 0.05 0.00 94 1017.8
20260901061106 60 186 3.0 6.0 0.00 0.05 0.00 94 1017.8
20260901060558 60 206 2.0 6.0 0.00 0.05 0.00 94 1017.8
20260901060051 60 192 2.0 6.0 0.00 0.05 0.00 94 1017.6
20260901055545 60 196 2.0 6.0 0.00 0.05 0.00 94 1017.6
20260901055038 60 202 2.0 6.0 0.00 0.05 0.00 94 1017.6
20260901054528 60 231 2.0 6.0 0.00 0.05 0.00 94 1017.6
20260901054020 60 185 2.0 6.0 0.00 0.05 0.00 94 1017.5
20260901053608 60 193 2.0 5.0 0.00 0.05 0.00 94 1017.5
20260901053058 60 212 2.0 5.0 0.00 0.05 0.00 94 1017.4
20260901052554 60 214 2.0 5.0 0.00 0.05 0.00 94 1017.5
20260901052548 60 191 2.0 4.0 0.00 0.05 0.00 94 1017.5
20260901051531 60 170 2.0 5.0 0.00 0.05 0.00 95 1017.4
20260901051028 60 233 2.0 5.0 0.00 0.05 0.00 95 1017.4
20260901050519 60 185 2.0 6.0 0.00 0.05 0.00 95 1017.3
20260901050112 60 199 2.0 8.0 0.00 0.05 0.00 95 1017.3
20260901050106 60 200 2.0 7.0 0.00 0.05 0.00 95 1017.3
20260901045055 60 165 3.0 7.0 0.00 0.05 0.00 95 1017.2
20260901045049 60 188 3.0 8.0 0.00 0.05 0.00 95 1017.3
20260901044743 60 183 3.0 7.0 0.00 0.05 0.00 95 1017.1
20260901043526 60 217 4.0 7.0 0.00 0.05 0.00 95 1017.1
20260901043016 60 208 4.0 7.0 0.00 0.05 0.00 95 1017.1
20260901042510 59 236 3.0 6.0 0.00 0.05 0.00 95 1017.0
20260901042104 59 160 3.0 6.0 0.00 0.05 0.00 95 1016.9
20260901042057 59 194 3.0 6.0 0.00 0.05 0.00 95 1017.0
20260901041048 59 208 2.0 5.0 0.00 0.05 0.00 95 1016.9
20260901041042 59 204 2.0 6.0 0.00 0.05 0.00 95 1016.9
20260901040031 59 176 2.0 7.0 0.00 0.05 0.00 94 1016.8
20260901040026 59 210 2.0 7.0 0.00 0.05 0.00 94 1016.9
20260901035721 58 203 3.0 7.0 0.00 0.05 0.00 94 1016.6
20260901035008 58 228 2.0 7.0 0.00 0.05 0.00 94 1016.7
20260901033954 58 181 3.0 5.0 0.00 0.05 0.00 93 1016.7
20260901033542 58 199 3.0 5.0 0.00 0.05 0.00 93 1016.6
20260901033146 59 200 3.0 6.0 0.00 0.05 0.00 93 1016.6
20260901033043 59 214 3.0 6.0 0.00 0.05 0.00 93 1016.6
20260901032728 59 174 3.0 6.0 0.00 0.05 0.00 93 1016.7
20260901031508 59 196 3.0 7.0 0.00 0.05 0.00 93 1016.7
20260901030958 59 206 3.0 7.0 0.00 0.05 0.00 93 1016.6
20260901030448 59 189 3.0 6.0 0.00 0.05 0.00 93 1016.5
20260901025939 59 179 3.0 6.0 0.00 0.05 0.00 93 1016.6
20260901025534 59 183 2.0 5.0 0.00 0.05 0.00 92 1016.6
20260901025030 60 183 2.0 5.0 0.00 0.05 0.00 92 1016.6
20260901025024 59 186 2.0 4.0 0.00 0.05 0.00 92 1016.6
20260901024009 60 193 2.0 6.0 0.00 0.05 0.00 92 1016.7
20260901023459 60 180 2.0 6.0 0.00 0.05 0.00 92 1016.7
20260901022952 60 213 2.0 5.0 0.00 0.05 0.00 92 1016.7
20260901022443 60 176 3.0 6.0 0.00 0.05 0.00 92 1016.6
20260901021933 60 209 3.0 6.0 0.00 0.05 0.00 92 1016.6
20260901021428 60 192 3.0 7.0 0.00 0.05 0.00 92 1016.6
20260901020935 60 225 3.0 7.0 0.00 0.05 0.00 92 1016.7
20260901020509 60 193 3.0 7.0 0.00 0.05 0.00 92 1016.6
20260901020000 60 206 3.0 7.0 0.00 0.05 0.00 92 1016.6
20260901015457 60 172 3.0 7.0 0.00 0.05 0.00 92 1016.5
20260901015451 60 196 3.0 7.0 0.00 0.05 0.00 92 1016.5
20260901014941 60 192 3.0 7.0 0.00 0.05 0.00 92 1016.6
20260901013928 60 176 2.0 6.0 0.00 0.05 0.00 92 1016.6
20260901013924 60 209 3.0 6.0 0.00 0.05 0.00 92 1016.5
20260901013619 60 225 2.0 5.0 0.00 0.05 0.00 92 1016.7
20260901012500 60 227 1.0 6.0 0.00 0.05 0.00 92 1016.7
20260901011950 60 235 1.0 6.0 0.00 0.05 0.00 92 1016.7
20260901011442 60 285 1.0 3.0 0.00 0.05 0.00 91 1016.7
20260901010934 60 225 2.0 4.0 0.00 0.05 0.00 91 1016.6
20260901010444 60 230 3.0 8.0 0.00 0.05 0.00 91 1016.5
20260901005920 60 220 3.0 8.0 0.00 0.05 0.00 91 1016.5
20260901005414 60 234 3.0 7.0 0.00 0.05 0.00 91 1016.5
20260901005410 60 201 3.0 7.0 0.00 0.05 0.00 91 1016.5
20260901004459 60 231 3.0 7.0 0.00 0.05 0.00 91 1016.5
20260901003940 60 197 3.0 7.0 0.00 0.05 0.00 91 1016.4
20260901003431 60 195 3.0 7.0 0.00 0.05 0.00 91 1016.4
20260901002923 60 221 4.0 9.0 0.00 0.05 0.00 91 1016.4
20260901002415 60 193 4.0 9.0 0.00 0.05 0.00 91 1016.4
20260901001913 60 207 3.0 7.0 0.00 0.05 0.00 91 1016.5
20260901001507 60 203 4.0 6.0 0.00 0.05 0.00 91 1016.4
20260901000958 60 181 4.0 6.0 0.00 0.06 0.00 91 1016.4
20260901000848 60 194 3.0 7.0 0.00 0.06 0.00 90 1016.4
20260901000539 60 210 3.0 6.0 0.00 0.06 0.00 90 1016.4
20260831235430 60 191 3.0 7.0 0.00 0.06 0.00 90 1016.3
20260831234920 60 227 3.0 6.0 0.00 0.11 0.00 90 1016.3
20260831234916 60 191 3.0 6.0 0.00 0.08 0.00 90 1016.3
20260831233908 60 185 3.0 6.0 0.00 0.11 0.00 89 1016.3
20260831233458 60 233 3.0 7.0 0.00 0.11 0.00 89 1016.2
20260831232948 60 183 3.0 7.0 0.00 0.11 0.00 89 1016.2
20260831232439 60 217 3.0 6.0 0.00 0.11 0.00 89 1016.1
20260831231931 60 197 2.0 6.0 0.00 0.11 0.00 89 1016.2
20260831231414 61 187 2.0 6.0 0.00 0.11 0.00 89 1016.2
20260831230907 61 225 3.0 6.0 0.00 0.11 0.00 89 1016.1
20260831230407 61 197 3.0 7.0 0.00 0.11 0.00 88 1016.0
20260831225957 61 240 3.0 7.0 0.00 0.11 0.00 88 1016.1
20260831225450 61 258 3.0 5.0 0.00 0.11 0.00 88 1016.0
20260831224947 61 178 3.0 6.0 0.00 0.11 0.00 88 1016.0
20260831224435 61 186 3.0 8.0 0.00 0.11 0.00 88 1016.0
20260831224328 61 196 4.0 8.0 0.00 0.11 0.00 88 1016.0
20260831223420 61 275 4.0 8.0 0.00 0.11 0.00 88 1016.0
20260831222912 61 201 4.0 7.0 0.00 0.11 0.00 88 1016.0
20260831222403 61 214 3.0 7.0 0.00 0.11 0.00 87 1016.0
20260831221954 61 195 3.0 6.0 0.00 0.11 0.00 87 1016.0
20260831221444 61 188 3.0 6.0 0.00 0.11 0.00 87 1016.0
20260831220933 61 228 3.0 6.0 0.00 0.11 0.00 87 1016.0
20260831220423 61 244 3.0 7.0 0.00 0.11 0.00 86 1015.9
20260831220312 61 224 3.0 7.0 0.00 0.11 0.11 86 1016.0
20260831215406 61 199 3.0 7.0 0.00 0.11 0.11 86 1016.0
20260831214859 61 204 3.0 7.0 0.00 0.11 0.11 85 1016.0
20260831214354 61 208 4.0 8.0 0.00 0.11 0.11 85 1016.0
20260831213940 61 212 3.0 8.0 0.00 0.11 0.11 85 1015.9
20260831213432 61 208 3.0 7.0 0.00 0.11 0.11 85 1015.9
20260831212925 61 187 3.0 7.0 0.00 0.11 0.11 84 1015.9
20260831212819 61 193 3.0 7.0 0.00 0.11 0.11 84 1015.8
20260831211912 61 283 3.0 6.0 0.00 0.11 0.11 84 1015.8
20260831211402 61 218 3.0 6.0 0.00 0.11 0.11 83 1015.8
20260831211252 60 202 3.0 7.0 0.00 0.11 0.11 84 1015.7
20260831210346 60 206 3.0 7.0 0.00 0.11 0.11 83 1015.7
20260831205936 60 191 3.0 5.0 0.00 0.11 0.11 83 1015.6
20260831205431 60 195 3.0 5.0 0.00 0.11 0.11 83 1015.6
20260831204926 60 191 2.0 5.0 0.00 0.11 0.11 83 1015.6
20260831204416 60 193 2.0 5.0 0.00 0.11 0.11 83 1015.5
20260831203910 60 189 2.0 4.0 0.00 0.11 0.11 82 1015.5
20260831203757 61 204 2.0 5.0 0.00 0.11 0.11 82 1015.5
20260831202904 61 212 2.0 5.0 0.00 0.11 0.11 82 1015.5
20260831202345 61 194 1.0 4.0 0.00 0.11 0.11 81 1015.4
20260831201841 61 201 1.0 3.0 0.00 0.11 0.11 81 1015.4
20260831201433 61 201 2.0 3.0 0.00 0.11 0.11 81 1015.3
20260831201324 61 191 1.0 3.0 0.00 0.11 0.11 80 1015.3
20260831200415 61 193 1.0 3.0 0.00 0.11 0.11 79 1015.2
20260831195906 61 197 0.0 2.0 0.00 0.11 0.11 79 1015.1
20260831195400 62 203 1.0 4.0 0.00 0.11 0.11 79 1015.0
20260831195252 62 207 1.0 4.0 0.00 0.11 0.11 78 1014.9
20260831194345 62 203 0.0 0.0 0.00 0.11 0.11 78 1014.9
20260831193839 62 206 0.0 0.0 0.00 0.11 0.11 78 1014.8
20260831193333 62 206 1.0 3.0 0.00 0.11 0.11 77 1014.7
20260831193227 62 201 1.0 3.0 0.00 0.11 0.11 77 1014.8
20260831192427 62 197 0.0 0.0 0.00 0.11 0.11 76 1014.7
20260831191913 63 201 0.0 0.0 0.00 0.11 0.11 75 1014.6
20260831191803 63 227 0.0 0.0 0.00 0.11 0.11 75 1014.6
20260831190900 63 227 0.0 3.0 0.00 0.11 0.11 75 1014.5
20260831190352 63 223 0.0 3.0 0.00 0.11 0.11 74 1014.5
20260831185846 63 218 0.0 3.0 0.00 0.11 0.11 74 1014.5
20260831185338 64 200 0.0 4.0 0.00 0.11 0.11 74 1014.4
20260831184831 64 232 0.0 4.0 0.00 0.11 0.11 73 1014.3
20260831184717 65 220 1.0 5.0 0.00 0.11 0.11 72 1014.1
20260831184421 64 239 0.0 3.0 0.00 0.11 0.11 72 1014.1
20260831184414 64 235 0.0 3.0 0.00 0.11 0.11 73 1014.2
20260831182900 65 213 1.0 5.0 0.00 0.11 0.11 71 1014.0
20260831182352 65 232 1.0 4.0 0.00 0.11 0.11 71 1013.9
20260831181844 65 221 0.0 4.0 0.00 0.11 0.11 71 1013.8
20260831181337 65 252 1.0 4.0 0.00 0.11 0.11 70 1013.6
20260831180828 66 6 1.0 5.0 0.00 0.11 0.11 70 1013.5
20260831180714 66 269 1.0 6.0 0.00 0.11 0.11 69 1013.5
20260831175908 66 249 1.0 7.0 0.00 0.11 0.11 69 1013.4
20260831175400 66 295 1.0 7.0 0.00 0.11 0.11 69 1013.3
20260831174850 66 239 0.0 4.0 0.00 0.11 0.11 69 1013.3
20260831174341 67 286 2.0 7.0 0.00 0.11 0.11 69 1013.2
20260831173831 67 265 1.0 7.0 0.00 0.11 0.11 68 1013.1
20260831173324 67 314 1.0 6.0 0.00 0.11 0.11 68 1012.9
20260831172815 67 6 2.0 9.0 0.00 0.11 0.11 67 1012.9
20260831172308 67 276 2.0 11.0 0.00 0.11 0.11 67 1012.8
20260831171854 67 330 2.0 11.0 0.00 0.11 0.11 67 1012.6
20260831171348 68 112 3.0 9.0 0.00 0.11 0.11 67 1012.6
20260831171142 68 170 3.0 9.0 0.00 0.11 0.11 66 1012.6
20260831170330 68 29 3.0 9.0 0.00 0.11 0.11 66 1012.4
20260831165824 68 33 3.0 9.0 0.00 0.11 0.11 67 1012.4
20260831165313 69 193 2.0 7.0 0.00 0.11 0.11 67 1012.3
20260831164808 69 303 2.0 9.0 0.00 0.11 0.11 67 1012.3
20260831164400 69 247 3.0 9.0 0.00 0.11 0.11 67 1012.3
20260831163851 69 302 3.0 12.0 0.00 0.11 0.11 67 1012.3
20260831163343 69 131 3.0 12.0 0.00 0.11 0.11 67 1012.2
20260831163233 69 114 3.0 10.0 0.00 0.11 0.11 67 1012.2
20260831162324 69 179 3.0 10.0 0.00 0.11 0.11 67 1012.2
20260831161812 69 224 3.0 10.0 0.00 0.11 0.11 68 1012.2
20260831161307 69 261 2.0 7.0 0.00 0.11 0.11 68 1012.2
20260831160859 69 347 2.0 10.0 0.00 0.11 0.11 68 1012.1
20260831160652 69 252 3.0 10.0 0.00 0.11 0.11 67 1012.0
20260831155844 69 328 3.0 10.0 0.00 0.11 0.11 67 1011.9
20260831155334 69 228 2.0 10.0 0.00 0.11 0.11 66 1011.9
20260831154826 69 337 3.0 10.0 0.00 0.11 0.11 67 1011.8
20260831154715 69 185 4.0 10.0 0.00 0.11 0.11 67 1011.8
20260831153809 69 203 4.0 12.0 0.00 0.11 0.11 67 1011.7
20260831153259 69 210 5.0 12.0 0.00 0.11 0.11 66 1011.6
20260831152848 70 270 5.0 14.0 0.00 0.11 0.11 67 1011.6
20260831152338 70 280 5.0 14.0 0.00 0.11 0.11 67 1011.5
20260831151831 69 247 5.0 12.0 0.00 0.11 0.11 67 1011.5
20260831151321 69 223 4.0 12.0 0.00 0.11 0.11 67 1011.4
20260831150812 70 67 4.0 11.0 0.00 0.11 0.11 67 1011.3
20260831150558 69 16 3.0 13.0 0.00 0.11 0.11 70 1011.2
20260831150358 69 47 3.0 11.0 0.00 0.11 0.11 69 1011.4
20260831145250 68 251 4.0 14.0 0.00 0.11 0.11 70 1011.2
20260831144840 69 239 4.0 14.0 0.00 0.11 0.11 70 1011.2
20260831144333 69 222 4.0 13.0 0.00 0.11 0.11 71 1011.1
20260831143822 69 326 4.0 13.0 0.00 0.11 0.11 70 1010.9
20260831143617 69 184 4.0 13.0 0.00 0.11 0.11 71 1010.9
20260831142805 69 200 5.0 12.0 0.00 0.11 0.11 73 1010.8
20260831142258 69 221 5.0 12.0 0.00 0.11 0.11 73 1010.7
20260831141747 68 54 4.0 10.0 0.00 0.11 0.11 74 1010.6
20260831141637 68 266 4.0 11.0 0.00 0.11 0.11 74 1010.5
20260831140826 67 277 5.0 21.0 0.00 0.11 0.11 74 1010.5
20260831140318 67 203 5.0 21.0 0.00 0.11 0.11 73 1010.6
20260831135808 68 168 5.0 14.0 0.00 0.11 0.11 74 1010.6
20260831135552 67 210 5.0 15.0 0.00 0.11 0.11 78 1010.6
20260831135352 67 251 5.0 14.0 0.00 0.11 0.11 75 1010.7
20260831134245 66 345 5.0 15.0 0.00 0.11 0.11 79 1010.5
20260831133740 65 235 5.0 12.0 0.00 0.11 0.11 80 1010.6
20260831133328 64 226 6.0 17.0 0.00 0.11 0.11 78 1010.6
20260831132819 65 289 5.0 17.0 0.00 0.11 0.11 80 1010.5
20260831132310 65 174 6.0 17.0 0.00 0.11 0.11 81 1010.3
20260831131803 65 227 7.0 17.0 0.00 0.11 0.11 80 1010.2
20260831131251 66 223 7.0 16.0 0.00 0.11 0.11 80 1010.1
20260831130744 66 218 7.0 16.0 0.00 0.11 0.11 79 1009.9
20260831130235 66 252 7.0 15.0 0.00 0.11 0.11 78 1009.9
20260831125732 67 244 8.0 20.0 0.00 0.11 0.11 77 1009.9
20260831125322 67 197 8.0 20.0 0.00 0.11 0.11 76 1009.7
20260831124815 68 215 9.0 20.0 0.00 0.11 0.11 75 1009.9
20260831124308 68 210 9.0 20.0 0.00 0.11 0.11 74 1009.8
20260831123758 68 203 8.0 16.0 0.00 0.11 0.11 77 1009.7
20260831123446 68 212 8.0 17.0 0.00 0.11 0.11 78 1009.8
20260831123247 68 176 7.0 16.0 0.00 0.11 0.11 77 1009.8
20260831122539 67 228 9.0 17.0 0.00 0.11 0.11 78 1009.8
20260831121728 67 122 8.0 21.0 0.00 0.11 0.11 79 1009.8
20260831121619 67 254 8.0 21.0 0.00 0.11 0.11 80 1009.7
20260831121111 66 250 8.0 18.0 0.00 0.11 0.11 82 1009.6
20260831120301 66 243 7.0 18.0 0.00 0.11 0.11 82 1009.6
20260831115751 65 172 6.0 13.0 0.02 0.11 0.11 83 1009.7
20260831115242 65 92 6.0 13.0 0.05 0.11 0.11 84 1009.7
20260831114735 65 258 6.0 17.0 0.05 0.11 0.11 85 1009.6
20260831114226 65 238 6.0 17.0 0.05 0.11 0.11 84 1009.6
20260831113913 65 237 6.0 22.0 0.05 0.11 0.11 86 1009.6